Regional Weather Roundup
Issued by NWS

Home | Current Version | Previous Version | Text Only | Print | Product List | Glossary Off
Versions: 1 2 3 4 5 6 7 8 9 10 11 12 13 14 15 16 17 18 19 20 21 22 23 24 25 26 27 28 29 30 31 32 33 34 35 36 37 38 39 40 41 42 43 44 45 46 47 48 49 50

000
ASUS43 KLMK 280910
RWRKY
KENTUCKY REGIONAL WEATHER ROUNDUP
NATIONAL WEATHER SERVICE LOUISVILLE KY
500 AM EDT TUE APR 28 2015

NOTE "FAIR" INDICATES FEW OR NO CLOUDS BELOW 12,000 FEET
WITH NO SIGNIFICANT WEATHER AND/OR OBSTRUCTIONS TO VISIBILITY.

KYZ001>023-026-027-061>063-070>075-281000-
WESTERN AND SOUTH CENTRAL KENTUCKY

CITY           SKY/WX    TMP DP  RH WIND       PRES   REMARKS
PADUCAH        CLEAR     45  39  79 N6        30.02F
HENDERSON      CLEAR     46  37  71 NE7       30.05S
OWENSBORO      CLEAR     47  39  73 NE8       30.05F
HOPKINSVILLE   CLEAR     45  40  82 NE8       30.00S
BOWLING GREEN  CLEAR     47  38  71 NE7       30.01F
GLASGOW        CLEAR     46  38  73 NE10G16   30.00F
$$

KYZ024-025-028>034-038-045-046-053-281000-
NORTH CENTRAL KENTUCKY

CITY           SKY/WX    TMP DP  RH WIND       PRES   REMARKS
LOUISVILLE/SDF CLEAR     47  38  71 E3        30.08R
LOUISVILLE/LOU CLEAR     45  38  76 N3        30.08R
FORT KNOX      CLEAR     45  38  76 NE7       30.04S
$$

KYZ035>037-039>044-047>052-055>060-089>105-281000-
NORTHEAST KENTUCKY

CITY           SKY/WX    TMP DP  RH WIND       PRES   REMARKS
LEXINGTON      CLEAR     39  35  86 NE7       30.07R WCI  34
COVINGTON      CLEAR     42  35  76 CALM      30.08R
FRANKFORT      CLEAR     42  36  79 NE3       30.06R
$$

KYZ054-064>069-076>088-106>120-281000-
SOUTHEAST KENTUCKY

CITY           SKY/WX    TMP DP  RH WIND       PRES   REMARKS
JACKSON        PTCLDY    42  35  76 CALM      30.04R
LONDON         CLEAR     44  34  67 N5        30.01S
SOMERSET       CLEAR     43  34  70 E5        30.03S
MIDDLESBORO    CLEAR     37  37  99 CALM      30.01S
MONTICELLO     SUNNY     44  39  82 NE7       30.04S
$$



USA.gov is the U.S. government's official web portal to all federal, state and local government web resources and services.